Location: Geremba
(10.4250°N, 67.2394°W)
Time: 00:46:17
(UTC+00:00)

BlueWalker 3 - Pass Details

Date: 23 May 2024
Orbit: 480 x 494 km, 53.2° (Epoch: 12 June)

Event Time Altitude Azimuth Distance (km) Brightness Sun altitude
Exits shadow 08:59:36 15° 188° (S) 1,342 3.8 -15.9°
Maximum altitude 09:02:16 39° 123° (ESE) 728 3.0 -15.3°
Drops below altitude 10° 09:05:45 10° 54° (NE) 1,644 5.9 -14.5°
Sets 09:07:59 0° 46° (NE) 2,522 6.9 -14.0°
